• In Belarus
  • List of Countries
  • For 7 days
  • Water Temperature
  • Weather Map
  • Weather Widgets
  • user-avatar
    Login

    Hourly Weather Dzyarzhynsk

    Today, 29 February, Saturday

    Time Temperature Precipitation Wind Pressure Humidity
    00:00 -2°C° 0 mm 3 mps 737 mmHg 84%
    01:00 -2°C° 0 mm 3 mps 737 mmHg 84%
    02:00 -4°C° 0 mm 3 mps 738 mmHg 84%
    03:00 -2°C° 0 mm 3 mps 737 mmHg 85%
    04:00 -3°C° 0 mm 4 mps 737 mmHg 86%
    05:00 -3°C° 0 mm 4 mps 737 mmHg 88%
    06:00 -3°C° 0 mm 4 mps 737 mmHg 88%
    07:00 -3°C° 0 mm 4 mps 737 mmHg 89%
    08:00 -3°C° 0 mm 4 mps 737 mmHg 90%
    09:00 -2°C° 0 mm 4 mps 737 mmHg 86%
    10:00 -1°C° 0 mm 5 mps 738 mmHg 82%
    11:00 -1°C° 0 mm 5 mps 738 mmHg 79%
    12:00 0°C° 0 mm 5 mps 738 mmHg 74%
    13:00 +1°C° 0 mm 5 mps 738 mmHg 70%
    14:00 +1°C° 0 mm 5 mps 738 mmHg 65%
    15:00 +1°C° 0 mm 4 mps 738 mmHg 69%
    16:00 +1°C° 0 mm 3 mps 737 mmHg 74%
    17:00 +2°C° 0 mm 2 mps 737 mmHg 78%
    18:00 0°C° 0 mm 3 mps 737 mmHg 80%
    19:00 0°C° 0 mm 3 mps 737 mmHg 83%
    20:00 -2°C° 0 mm 4 mps 737 mmHg 86%
    21:00 -2°C° 0 mm 4 mps 737 mmHg 84%
    22:00 -2°C° 0 mm 5 mps 736 mmHg 83%
    23:00 -2°C° 0 mm 5 mps 736 mmHg 82%

    Tomorrow, 1 March, Sunday

    Time Temperature Precipitation Wind Pressure Humidity
    00:00 -2°C° 0 mm 5 mps 736 mmHg 80%
    01:00 -3°C° 0 mm 6 mps 736 mmHg 78%
    02:00 -2°C° 0 mm 6 mps 735 mmHg 75%
    03:00 -2°C° 0 mm 6 mps 735 mmHg 76%
    04:00 -2°C° 0 mm 6 mps 735 mmHg 77%
    05:00 -2°C° 0 mm 6 mps 734 mmHg 78%
    06:00 -2°C° 0 mm 6 mps 734 mmHg 77%
    07:00 -2°C° 0 mm 6 mps 734 mmHg 75%
    08:00 -2°C° 0 mm 6 mps 734 mmHg 74%
    09:00 -1°C° 0 mm 6 mps 734 mmHg 73%
    10:00 +1°C° 0 mm 6 mps 734 mmHg 72%
    11:00 +1°C° 0 mm 6 mps 734 mmHg 71%
    12:00 +1°C° 0.2 mm 6 mps 734 mmHg 74%
    13:00 +1°C° 0.2 mm 5 mps 734 mmHg 78%
    14:00 +1°C° 0.2 mm 5 mps 734 mmHg 81%
    15:00 +1°C° 0.5 mm 4 mps 734 mmHg 83%
    16:00 +1°C° 0.5 mm 4 mps 734 mmHg 85%
    17:00 +2°C° 0.5 mm 3 mps 734 mmHg 87%
    18:00 +1°C° 0.3 mm 4 mps 734 mmHg 86%
    19:00 +1°C° 0.3 mm 4 mps 734 mmHg 86%
    20:00 +1°C° 0.3 mm 4 mps 734 mmHg 86%
    21:00 +1°C° 0 mm 4 mps 734 mmHg 86%
    22:00 +1°C° 0 mm 4 mps 734 mmHg 86%
    23:00 +2°C° 0 mm 3 mps 733 mmHg 86%

    Day after tomorrow, 2 March, Monday

    Time Temperature Precipitation Wind Pressure Humidity
    00:00 +1°C° 0.2 mm 4 mps 733 mmHg 88%
    01:00 +1°C° 0.2 mm 4 mps 733 mmHg 90%
    02:00 +1°C° 0.2 mm 4 mps 733 mmHg 92%
    03:00 +2°C° 0.3 mm 3 mps 733 mmHg 93%
    04:00 +2°C° 0.3 mm 3 mps 733 mmHg 95%
    05:00 +2°C° 0.3 mm 3 mps 733 mmHg 96%
    06:00 +2°C° 0.1 mm 3 mps 733 mmHg 96%
    07:00 +2°C° 0.1 mm 3 mps 733 mmHg 97%
    08:00 +2°C° 0.1 mm 3 mps 734 mmHg 97%
    09:00 +2°C° 0 mm 3 mps 733 mmHg 95%
    10:00 +3°C° 0 mm 3 mps 733 mmHg 93%
    11:00 +3°C° 0 mm 3 mps 733 mmHg 92%
    12:00 +4°C° 0 mm 4 mps 733 mmHg 88%
    13:00 +5°C° 0 mm 5 mps 732 mmHg 84%
    14:00 +5°C° 0 mm 6 mps 732 mmHg 80%
    15:00 +4°C° 0.3 mm 6 mps 731 mmHg 83%
    16:00 +3°C° 0.3 mm 6 mps 731 mmHg 86%
    17:00 +3°C° 0.3 mm 6 mps 730 mmHg 89%
    18:00 +3°C° 0.7 mm 6 mps 730 mmHg 90%
    19:00 +3°C° 0.7 mm 6 mps 730 mmHg 91%
    20:00 +3°C° 0.7 mm 6 mps 730 mmHg 92%
    21:00 +3°C° 0.4 mm 5 mps 729 mmHg 93%
    22:00 +3°C° 0.4 mm 5 mps 729 mmHg 94%
    23:00 +4°C° 0.4 mm 4 mps 729 mmHg 94%

    3 March, Tuesday

    Time Temperature Precipitation Wind Pressure Humidity
    00:00 +3°C° 0.3 mm 5 mps 730 mmHg 93%
    01:00 +3°C° 0.3 mm 5 mps 730 mmHg 91%
    02:00 +3°C° 0.3 mm 5 mps 730 mmHg 90%
    03:00 +3°C° 0 mm 5 mps 731 mmHg 89%
    04:00 +3°C° 0 mm 4 mps 731 mmHg 89%
    05:00 +3°C° 0 mm 4 mps 732 mmHg 89%
    06:00 +1°C° 0 mm 4 mps 732 mmHg 91%
    07:00 +2°C° 0 mm 3 mps 733 mmHg 92%
    08:00 +1°C° 0 mm 3 mps 734 mmHg 94%
    09:00 +3°C° 0 mm 3 mps 734 mmHg 87%
    10:00 +4°C° 0 mm 4 mps 734 mmHg 80%
    11:00 +6°C° 0 mm 4 mps 735 mmHg 74%
    12:00 +7°C° 0 mm 4 mps 735 mmHg 71%
    13:00 +8°C° 0 mm 4 mps 734 mmHg 68%
    14:00 +8°C° 0 mm 4 mps 734 mmHg 65%
    15:00 +8°C° 0 mm 4 mps 734 mmHg 67%
    16:00 +8°C° 0 mm 4 mps 734 mmHg 69%
    17:00 +9°C° 0 mm 3 mps 734 mmHg 71%
    18:00 +7°C° 0 mm 4 mps 734 mmHg 72%
    19:00 +7°C° 0 mm 4 mps 734 mmHg 74%
    20:00 +6°C° 0 mm 4 mps 734 mmHg 75%
    21:00 +6°C° 0 mm 4 mps 734 mmHg 78%
    22:00 +6°C° 0 mm 4 mps 733 mmHg 81%
    23:00 +6°C° 0 mm 4 mps 733 mmHg 84%

    4 March, Wednesday

    Time Temperature Precipitation Wind Pressure Humidity
    00:00 +6°C° 0 mm 4 mps 733 mmHg 86%
    01:00 +6°C° 0 mm 4 mps 733 mmHg 87%
    02:00 +6°C° 0 mm 4 mps 733 mmHg 89%
    03:00 +5°C° 0 mm 4 mps 732 mmHg 91%
    04:00 +5°C° 0 mm 4 mps 732 mmHg 92%
    05:00 +5°C° 0 mm 4 mps 732 mmHg 94%
    06:00 +5°C° 0 mm 4 mps 732 mmHg 95%
    07:00 +6°C° 0 mm 4 mps 731 mmHg 95%
    08:00 +6°C° 0 mm 4 mps 731 mmHg 96%
    09:00 +6°C° 0 mm 4 mps 731 mmHg 94%
    10:00 +7°C° 0 mm 4 mps 731 mmHg 92%
    11:00 +7°C° 0 mm 4 mps 731 mmHg 90%
    12:00 +7°C° 0 mm 5 mps 731 mmHg 88%
    13:00 +8°C° 0 mm 5 mps 730 mmHg 87%
    14:00 +8°C° 0 mm 5 mps 730 mmHg 86%
    15:00 +8°C° 0.1 mm 5 mps 730 mmHg 85%
    16:00 +8°C° 0.1 mm 5 mps 729 mmHg 85%
    17:00 +8°C° 0.1 mm 5 mps 729 mmHg 85%
    18:00 +8°C° 0 mm 5 mps 729 mmHg 83%
    19:00 +9°C° 0 mm 5 mps 728 mmHg 81%
    20:00 +9°C° 0 mm 6 mps 728 mmHg 79%
    21:00 +9°C° 0.2 mm 6 mps 727 mmHg 80%
    22:00 +9°C° 0.2 mm 6 mps 727 mmHg 81%
    23:00 +9°C° 0.2 mm 6 mps 727 mmHg 83%

    5 March, Thursday

    Time Temperature Precipitation Wind Pressure Humidity
    00:00 +8°C° 0.5 mm 6 mps 727 mmHg 83%
    01:00 +7°C° 0.5 mm 6 mps 727 mmHg 83%
    02:00 +5°C° 0.5 mm 6 mps 726 mmHg 84%
    03:00 +4°C° 0 mm 7 mps 726 mmHg 82%
    04:00 +4°C° 0 mm 7 mps 726 mmHg 80%
    05:00 +4°C° 0 mm 7 mps 726 mmHg 79%
    06:00 +4°C° 0 mm 7 mps 727 mmHg 79%
    07:00 +4°C° 0 mm 7 mps 727 mmHg 79%
    08:00 +4°C° 0 mm 7 mps 727 mmHg 80%
    09:00 +4°C° 0 mm 7 mps 727 mmHg 80%
    10:00 +4°C° 0 mm 7 mps 727 mmHg 81%
    11:00 +4°C° 0 mm 7 mps 728 mmHg 81%
    12:00 +3°C° 0.1 mm 7 mps 728 mmHg 84%
    13:00 +3°C° 0.1 mm 7 mps 728 mmHg 86%
    14:00 +3°C° 0.1 mm 6 mps 728 mmHg 88%
    15:00 +2°C° 0.1 mm 6 mps 729 mmHg 89%
    16:00 +2°C° 0.1 mm 6 mps 729 mmHg 90%
    17:00 +1°C° 0.1 mm 6 mps 730 mmHg 91%
    18:00 +1°C° 0.2 mm 5 mps 730 mmHg 92%
    19:00 0°C° 0.2 mm 5 mps 731 mmHg 94%
    20:00 0°C° 0.2 mm 5 mps 731 mmHg 95%
    21:00 0°C° 0.2 mm 5 mps 732 mmHg 93%
    22:00 0°C° 0.2 mm 5 mps 732 mmHg 90%
    23:00 0°C° 0.2 mm 5 mps 733 mmHg 88%
    Show more